Location: Crescent
(42.8242°N, 73.7329°W)
Time: 03:55:36
(UTC+00:00)

Tiros 1 - Pass Details

Date: 25 February 2026
Orbit: 618 x 649 km, 48.4° (Epoch: 7 March)

Event Time Altitude Azimuth Distance (km) Brightness Sun altitude
Rises 15:43:52 0° 295° (WNW) 2,908 10.1 34.8°
Reaches altitude 10° 15:46:12 10° 296° (WNW) 1,995 9.4 35.0°
Maximum altitude 15:50:47 89° 23° (NNE) 625 7.7 35.3°
Drops below altitude 10° 15:55:20 10° 117° (ESE) 1,976 10.4 35.7°
Sets 15:57:38 0° 118° (ESE) 2,878 11.1 35.8°
